Torna al catalogo

KUIPER-00478

AttivoComunicazioniLEO
NORAD 68875·PAYLOAD·🇺🇸 United States

Lanciato Apr 28, 2026 da Cape Canaveral Space Force Station

Loading…

Prossimi Passaggi (prossime 24 ore)

TLE

AggiornatoSource: CelesTrak SupGP

Epoca: Sep 14, 2026, 22:32 UTC

1 68875C 26095M   26257.93954861 -.00019720  00000+0 -25819-2 0  2577
2 68875  51.8984 196.2787 0000957  76.6575 146.7694 14.79943039    15

Traccia KUIPER-00478 in tempo reale con AllMySat

Download on the App Store